When you browse on this site, cookies collect data to enhance your experience and personalize the content and advertising you see.
Visit our Privacy Policy to learn more. By continuing to use the site, you agree to this use of cookies and data.
  • en Suisse
  • Liste des pays
  • À 7 jours
  • Température de l'eau
  • Carte météo
  • Widgets météo
  • user-avatar
    Se connecter

    Météo par heure à Sidorovskie

    Ce jour, 6 Décembre, Vendredi

    Heure Température Précipitation Vent Pression Humidité
    00:00 +1°C° 0 mm 6 m/s 749 mmHg 86%
    01:00 +1°C° 0 mm 5 m/s 749 mmHg 86%
    02:00 +1°C° 0 mm 5 m/s 748 mmHg 87%
    03:00 +1°C° 0 mm 6 m/s 748 mmHg 87%
    04:00 +1°C° 0 mm 6 m/s 747 mmHg 86%
    05:00 +1°C° 0 mm 6 m/s 747 mmHg 86%
    06:00 +1°C° 0 mm 6 m/s 746 mmHg 85%
    07:00 -1°C° 0 mm 6 m/s 746 mmHg 85%
    08:00 -1°C° 0 mm 7 m/s 746 mmHg 85%
    09:00 -1°C° 0 mm 7 m/s 745 mmHg 84%
    10:00 -2°C° 0 mm 7 m/s 745 mmHg 83%
    11:00 -2°C° 0 mm 7 m/s 744 mmHg 82%
    12:00 -2°C° 0.2 mm 7 m/s 744 mmHg 83%
    13:00 -2°C° 0.2 mm 7 m/s 744 mmHg 85%
    14:00 -2°C° 0.2 mm 8 m/s 743 mmHg 86%
    15:00 -1°C° 0 mm 7 m/s 743 mmHg 85%
    16:00 -1°C° 0 mm 7 m/s 743 mmHg 84%
    17:00 0°C° 0 mm 7 m/s 742 mmHg 83%
    18:00 0°C° 0 mm 7 m/s 743 mmHg 83%
    19:00 0°C° 0 mm 7 m/s 743 mmHg 84%
    20:00 0°C° 0 mm 7 m/s 743 mmHg 85%
    21:00 +2°C° 0 mm 7 m/s 744 mmHg 85%
    22:00 +2°C° 0 mm 7 m/s 744 mmHg 86%
    23:00 +2°C° 0 mm 6 m/s 744 mmHg 86%

    Demain, 7 Décembre, Samedi

    Heure Température Précipitation Vent Pression Humidité
    00:00 +2°C° 0 mm 6 m/s 744 mmHg 87%
    01:00 +2°C° 0 mm 6 m/s 744 mmHg 88%
    02:00 +2°C° 0 mm 5 m/s 744 mmHg 90%
    03:00 +2°C° 0 mm 5 m/s 744 mmHg 90%
    04:00 +2°C° 0 mm 5 m/s 744 mmHg 89%
    05:00 +2°C° 0 mm 5 m/s 744 mmHg 89%
    06:00 +2°C° 0 mm 5 m/s 744 mmHg 90%
    07:00 +1°C° 0 mm 5 m/s 744 mmHg 90%
    08:00 +1°C° 0 mm 5 m/s 744 mmHg 90%
    09:00 +1°C° 0.1 mm 5 m/s 743 mmHg 90%
    10:00 0°C° 0.1 mm 5 m/s 743 mmHg 90%
    11:00 0°C° 0.1 mm 5 m/s 742 mmHg 91%
    12:00 -1°C° 0.2 mm 6 m/s 742 mmHg 90%
    13:00 -1°C° 0.2 mm 6 m/s 741 mmHg 90%
    14:00 -1°C° 0.2 mm 6 m/s 741 mmHg 89%
    15:00 -1°C° 0.1 mm 6 m/s 740 mmHg 89%
    16:00 -1°C° 0.1 mm 6 m/s 740 mmHg 88%
    17:00 -1°C° 0.1 mm 6 m/s 740 mmHg 87%
    18:00 -1°C° 0 mm 6 m/s 739 mmHg 87%
    19:00 +1°C° 0 mm 6 m/s 739 mmHg 88%
    20:00 +1°C° 0 mm 6 m/s 739 mmHg 88%
    21:00 +1°C° 0 mm 6 m/s 738 mmHg 88%
    22:00 +2°C° 0 mm 6 m/s 738 mmHg 88%
    23:00 +2°C° 0 mm 5 m/s 738 mmHg 89%

    Après-demain, 8 Décembre, Dimanche

    Heure Température Précipitation Vent Pression Humidité
    00:00 +2°C° 0 mm 5 m/s 738 mmHg 86%
    01:00 +1°C° 0 mm 5 m/s 738 mmHg 83%
    02:00 +1°C° 0 mm 4 m/s 738 mmHg 80%
    03:00 +1°C° 0 mm 5 m/s 738 mmHg 83%
    04:00 +1°C° 0 mm 5 m/s 738 mmHg 85%
    05:00 0°C° 0 mm 5 m/s 738 mmHg 88%
    06:00 0°C° 0.1 mm 5 m/s 739 mmHg 88%
    07:00 0°C° 0.1 mm 5 m/s 740 mmHg 88%
    08:00 0°C° 0.1 mm 4 m/s 741 mmHg 89%
    09:00 0°C° 0 mm 4 m/s 741 mmHg 85%
    10:00 +1°C° 0 mm 4 m/s 742 mmHg 82%
    11:00 +1°C° 0 mm 4 m/s 742 mmHg 79%
    12:00 +1°C° 0 mm 4 m/s 742 mmHg 78%
    13:00 +1°C° 0 mm 4 m/s 743 mmHg 77%
    14:00 +1°C° 0 mm 4 m/s 743 mmHg 76%
    15:00 +1°C° 0 mm 4 m/s 743 mmHg 77%
    16:00 0°C° 0 mm 4 m/s 743 mmHg 79%
    17:00 0°C° 0 mm 4 m/s 743 mmHg 81%
    18:00 0°C° 0 mm 4 m/s 743 mmHg 82%
    19:00 0°C° 0 mm 4 m/s 743 mmHg 84%
    20:00 0°C° 0 mm 5 m/s 742 mmHg 86%
    21:00 0°C° 0.1 mm 5 m/s 742 mmHg 88%
    22:00 -1°C° 0.1 mm 6 m/s 741 mmHg 91%
    23:00 +1°C° 0.1 mm 6 m/s 741 mmHg 94%

    9 Décembre, Lundi

    Heure Température Précipitation Vent Pression Humidité
    00:00 +1°C° 0.3 mm 6 m/s 740 mmHg 93%
    01:00 +2°C° 0.3 mm 6 m/s 739 mmHg 93%
    02:00 +2°C° 0.3 mm 6 m/s 739 mmHg 92%
    03:00 +3°C° 0.2 mm 6 m/s 738 mmHg 91%
    04:00 +3°C° 0.2 mm 6 m/s 737 mmHg 90%
    05:00 +3°C° 0.2 mm 6 m/s 737 mmHg 89%
    06:00 +3°C° 0.2 mm 6 m/s 737 mmHg 89%
    07:00 +3°C° 0.2 mm 6 m/s 737 mmHg 89%
    08:00 +3°C° 0.2 mm 6 m/s 736 mmHg 89%
    09:00 +3°C° 0.6 mm 5 m/s 737 mmHg 90%
    10:00 +3°C° 0.6 mm 5 m/s 737 mmHg 90%
    11:00 +4°C° 0.6 mm 4 m/s 737 mmHg 91%
    12:00 +5°C° 0.1 mm 5 m/s 737 mmHg 87%
    13:00 +5°C° 0.1 mm 5 m/s 738 mmHg 82%
    14:00 +5°C° 0.1 mm 5 m/s 738 mmHg 78%
    15:00 +5°C° 0 mm 5 m/s 738 mmHg 79%
    16:00 +3°C° 0 mm 5 m/s 738 mmHg 79%
    17:00 +3°C° 0 mm 6 m/s 739 mmHg 80%
    18:00 +2°C° 0 mm 5 m/s 739 mmHg 82%
    19:00 +2°C° 0 mm 5 m/s 740 mmHg 84%
    20:00 +1°C° 0 mm 5 m/s 740 mmHg 86%
    21:00 +1°C° 0 mm 4 m/s 740 mmHg 86%
    22:00 +1°C° 0 mm 4 m/s 741 mmHg 87%
    23:00 +1°C° 0 mm 4 m/s 741 mmHg 87%

    10 Décembre, Mardi

    Heure Température Précipitation Vent Pression Humidité
    00:00 +1°C° 0 mm 4 m/s 741 mmHg 88%
    01:00 0°C° 0 mm 4 m/s 742 mmHg 89%
    02:00 +1°C° 0 mm 3 m/s 742 mmHg 89%
    03:00 +1°C° 0 mm 3 m/s 742 mmHg 90%
    04:00 +1°C° 0 mm 3 m/s 742 mmHg 92%
    05:00 0°C° 0 mm 3 m/s 742 mmHg 93%
    06:00 0°C° 0 mm 3 m/s 742 mmHg 93%
    07:00 +1°C° 0 mm 2 m/s 742 mmHg 93%
    08:00 +1°C° 0 mm 2 m/s 742 mmHg 93%
    09:00 0°C° 0.1 mm 3 m/s 742 mmHg 94%
    10:00 +1°C° 0.1 mm 3 m/s 742 mmHg 95%
    11:00 +1°C° 0.1 mm 3 m/s 742 mmHg 96%
    12:00 +1°C° 0.2 mm 3 m/s 742 mmHg 96%
    13:00 +2°C° 0.2 mm 3 m/s 742 mmHg 97%
    14:00 +2°C° 0.2 mm 3 m/s 742 mmHg 97%
    15:00 +2°C° 0.3 mm 3 m/s 742 mmHg 96%
    16:00 +1°C° 0.3 mm 3 m/s 742 mmHg 96%
    17:00 +1°C° 0.3 mm 3 m/s 742 mmHg 96%
    18:00 -1°C° 0.9 mm 4 m/s 743 mmHg 95%
    19:00 -2°C° 0.9 mm 4 m/s 743 mmHg 94%
    20:00 -4°C° 0.9 mm 5 m/s 743 mmHg 94%
    21:00 -3°C° 0.2 mm 4 m/s 744 mmHg 89%
    22:00 -2°C° 0.2 mm 3 m/s 744 mmHg 85%
    23:00 -2°C° 0.2 mm 3 m/s 745 mmHg 80%

    11 Décembre, Mercredi

    Heure Température Précipitation Vent Pression Humidité
    00:00 -2°C° 0 mm 3 m/s 745 mmHg 81%
    01:00 -4°C° 0 mm 3 m/s 746 mmHg 82%
    02:00 -3°C° 0 mm 2 m/s 746 mmHg 83%
    03:00 -4°C° 0 mm 3 m/s 746 mmHg 84%
    04:00 -4°C° 0 mm 3 m/s 747 mmHg 85%
    05:00 -4°C° 0 mm 3 m/s 747 mmHg 85%
    06:00 -4°C° 0 mm 3 m/s 748 mmHg 85%
    07:00 -4°C° 0 mm 3 m/s 748 mmHg 84%
    08:00 -4°C° 0 mm 3 m/s 749 mmHg 84%
    09:00 -4°C° 0 mm 3 m/s 749 mmHg 82%
    10:00 -2°C° 0 mm 3 m/s 750 mmHg 80%
    11:00 -2°C° 0 mm 3 m/s 750 mmHg 79%
    12:00 -2°C° 0 mm 3 m/s 750 mmHg 80%
    13:00 -2°C° 0 mm 2 m/s 750 mmHg 80%
    14:00 -2°C° 0 mm 2 m/s 750 mmHg 81%
    15:00 -2°C° 0 mm 2 m/s 750 mmHg 83%
    16:00 -2°C° 0 mm 2 m/s 750 mmHg 85%
    17:00 -4°C° 0 mm 3 m/s 750 mmHg 86%
    18:00 -4°C° 0 mm 3 m/s 750 mmHg 84%
    19:00 -2°C° 0 mm 3 m/s 750 mmHg 82%
    20:00 -3°C° 0 mm 4 m/s 749 mmHg 80%
    21:00 -3°C° 0 mm 4 m/s 749 mmHg 77%
    22:00 -3°C° 0 mm 4 m/s 749 mmHg 74%
    23:00 -2°C° 0 mm 5 m/s 748 mmHg 71%
    Voir plus